Pond Inlet,

2:12 AM EST on December 08, 2016 (GMT -0500)
Pond Inlet

Weather History for CYIO - October, 2011

Change the Weather History Date:

Monday, October 24, 2011

  Actual Average Record
Temperature  
Mean Temperature 3 °F -  
Max Temperature 10 °F 5 °F 30 °F (2003)
Min Temperature -4 °F -4 °F -9 °F (1997)
Degree Days  
Heating Degree Days 62    
Moisture  
Dew Point -4 °F    
Average Humidity 64    
Maximum Humidity 79    
Minimum Humidity 41    
Precipitation  
Precipitation 0.00 in - - ()
Sea Level Pressure  
Sea Level Pressure 29.73 in    
Wind  
Wind Speed 8 mph ()    
Max Wind Speed 14 mph    
Max Gust Speed -    
Visibility 10.1 miles    
Events Snow    
Averages and records for this station are not official NWS values.
T = Trace of Precipitation, MM = Missing Value Source: Averaged Metar Reports

Daily Weather History Graph

Daily Weather History Graph

Search for Another Location

Airport or City:

Trip Planner

Search our weather history database for the weather conditions in past years. The results will help you decide how hot, cold, wet, or windy it might be!

Date:

Astronomy

Oct. 24, 2011 Rise Set
Actual Time 9:28 AM EDT 4:21 PM EDT
Civil Twilight 8:07 AM EDT 5:42 PM EDT
Nautical Twilight 6:44 AM EDT 7:04 PM EDT
Astronomical Twilight 5:22 AM EDT 8:26 PM EDT
Moon 5:18 AM EDT (10/24) 3:48 PM EDT (10/24)
Length of Visible Light 9h 34m
Length of Day
6h 53m
Waning Crescent, 7% of the Moon is Illuminated
Oct 24
Waning Crescent
Oct 26
New
Nov 2
First Quarter
Nov 10
Full
Nov 18
Last Quarter

Hourly Weather History & Observations

Time (EDT) Temp. Windchill Dew Point Humidity Pressure Visibility Wind Dir Wind Speed Gust Speed Precip Events Conditions
12:00 AM 3.2 °F -11.3 °F -11.2 °F 51% 29.65 in 9.0 mi SE 9.2 mph - N/A   Partly Cloudy
1:00 AM -0.4 °F -12.0 °F -11.2 °F 60% 29.68 in 9.0 mi SE 5.8 mph - N/A   Clear
2:00 AM 6 °F - -7 °F 41% 29.68 in 9 mi SE 9.2 mph - -  
3:00 AM 8.6 °F -4.7 °F -4.0 °F 57% 29.69 in 9.0 mi SE 9.2 mph - N/A   Overcast
4:00 AM 5.0 °F -5.6 °F -4.0 °F 66% 29.69 in 9.0 mi SE 5.8 mph - N/A   Overcast
5:00 AM 6 °F - -5 °F 46% 29.70 in 9 mi SE 8.1 mph - -   Overcast
5:00 AM 6.8 °F -5.9 °F -4.0 °F 61% 29.70 in 9.0 mi SE 8.1 mph - N/A   Overcast
6:00 AM 5.0 °F -8.1 °F -7.6 °F 56% 29.71 in 9.0 mi ESE 8.1 mph - N/A   Overcast
8:00 AM 1 °F - -9 °F 47% 29.70 in 9 mi SE 5.8 mph - -  
8:00 AM 1.4 °F -8.3 °F -9.4 °F 61% 29.70 in 9.0 mi SE 4.6 mph - N/A   Scattered Clouds
10:00 AM -4.0 °F -21.2 °F -14.8 °F 60% 29.73 in 9.0 mi SE 10.4 mph - N/A   Clear
11:00 AM 0 °F - -8 °F 53% 29.74 in 9 mi SE 11.5 mph - -  
11:00 AM 1.4 °F -16.1 °F -7.6 °F 66% 29.74 in 30.0 mi SE 12.7 mph - N/A   Partly Cloudy
12:00 PM -2.2 °F -18.0 °F -11.2 °F 66% 29.75 in 30.0 mi SE 9.2 mph - N/A   Scattered Clouds
1:00 PM 1.4 °F -12.5 °F -7.6 °F 66% 29.75 in 30.0 mi South 8.1 mph - N/A   Partly Cloudy
2:00 PM 5 °F - -3 °F 57% 29.74 in 9 mi South 9.2 mph - -  
3:00 PM 8.6 °F -2.6 °F 1.4 °F 73% 29.76 in 20.0 mi SSW 6.9 mph - N/A   Mostly Cloudy
5:00 PM 9 °F - 3 °F 65% 29.78 in 9 mi SSE 4.6 mph - -   Overcast
5:00 PM 8.6 °F 0.1 °F 3.2 °F 79% 29.78 in 15.0 mi SSE 4.6 mph - N/A   Overcast
5:45 PM - - - N/A% - 15.0 mi SSE 5.8 mph - N/A   Unknown
6:00 PM 10.4 °F -1.5 °F 5.0 °F 79% 29.78 in 15.0 mi SSE 8.1 mph - N/A Snow Light Snow
7:00 PM 10.4 °F -2.4 °F 5.0 °F 79% 29.78 in 9.0 mi South 9.2 mph - N/A   Overcast
8:00 PM 10 °F - 3 °F 62% 29.76 in 9 mi South 11.5 mph - -   Overcast
8:24 PM 8.6 °F -7.7 °F 1.4 °F 73% 29.75 in 9.0 mi SSE 13.8 mph - N/A Snow Light Snow
8:49 PM 8.6 °F -7.7 °F 1.4 °F 73% 29.75 in 9.0 mi SSE 13.8 mph - N/A   Overcast
9:00 PM 8.6 °F -7.0 °F 1.4 °F 73% 29.77 in 9.0 mi SSE 12.7 mph - N/A   Overcast
10:00 PM 6.8 °F -7.8 °F -0.4 °F 72% 29.77 in 9.0 mi SE 10.4 mph - N/A   Overcast
10:48 PM 1.4 °F -14.5 °F -5.8 °F 72% 29.74 in 9.0 mi SSE 10.4 mph - N/A   Partly Cloudy
11:00 PM -0.4 °F -15.7 °F -7.6 °F 72% 29.76 in 9.0 mi SE 9.2 mph - N/A   Clear